TimeEEST,TemperatureF,Dew PointF,Humidity,Sea Level PressureIn,VisibilityMPH,Wind Direction,Wind SpeedMPH,Gust SpeedMPH,PrecipitationIn,Events,Conditions,WindDirDegrees,DateUTC
12:20 AM,69.8,62.6,78,29.92,-9999.0,NNW,5.8,-,N/A,,Clear,330,2013-06-15 21:20:00
12:50 AM,69.8,59.0,68,29.92,-9999.0,WNW,3.5,-,N/A,,Clear,290,2013-06-15 21:50:00
1:20 AM,69.8,60.8,73,29.92,-9999.0,West,3.5,-,N/A,,Clear,260,2013-06-15 22:20:00
1:50 AM,69.8,60.8,73,29.92,-9999.0,WNW,3.5,-,N/A,,Clear,290,2013-06-15 22:50:00
2:20 AM,69.8,60.8,73,29.92,-9999.0,West,3.5,-,N/A,,Clear,280,2013-06-15 23:20:00
2:50 AM,68.0,59.0,73,29.89,-9999.0,WNW,3.5,-,N/A,,Clear,290,2013-06-15 23:50:00
3:00 AM,68,60,68,29.91,6,WNW,3.5,,,,,290,2013-06-16 00:00:00
3:20 AM,68.0,59.0,73,29.89,-9999.0,Variable,1.2,-,N/A,,Clear,0,2013-06-16 00:20:00
3:50 AM,68.0,59.0,73,29.89,-9999.0,Variable,2.3,-,N/A,,Clear,0,2013-06-16 00:50:00
4:20 AM,68.0,60.8,78,29.89,-9999.0,NW,2.3,-,N/A,,Clear,320,2013-06-16 01:20:00
4:50 AM,68.0,59.0,73,29.89,-9999.0,Variable,2.3,-,N/A,,Clear,0,2013-06-16 01:50:00
5:20 AM,68.0,60.8,78,29.89,-9999.0,WNW,4.6,-,N/A,,Clear,290,2013-06-16 02:20:00
5:50 AM,68.0,60.8,78,29.89,-9999.0,WSW,3.5,-,N/A,,Clear,250,2013-06-16 02:50:00
6:20 AM,68.0,62.6,83,29.92,-9999.0,WSW,4.6,-,N/A,,Clear,240,2013-06-16 03:20:00
6:50 AM,69.8,62.6,78,29.92,-9999.0,SW,8.1,-,N/A,,Clear,230,2013-06-16 03:50:00
7:20 AM,69.8,64.4,83,29.92,-9999.0,SW,9.2,-,N/A,,Clear,230,2013-06-16 04:20:00
7:50 AM,69.8,64.4,83,29.92,-9999.0,WSW,10.4,-,N/A,,Clear,240,2013-06-16 04:50:00
8:20 AM,71.6,62.6,73,29.92,-9999.0,WSW,10.4,-,N/A,,Clear,240,2013-06-16 05:20:00
8:50 AM,71.6,64.4,78,29.95,6.2,SW,10.4,-,N/A,,Scattered Clouds,230,2013-06-16 05:50:00
9:00 AM,71,63,69,29.95,6,SW,11.5,,,,Partly Cloudy,230,2013-06-16 06:00:00
9:20 AM,71.6,62.6,73,29.95,6.2,WSW,10.4,-,N/A,,Scattered Clouds,250,2013-06-16 06:20:00
9:50 AM,73.4,64.4,73,29.95,6.2,WSW,10.4,-,N/A,,Scattered Clouds,240,2013-06-16 06:50:00
10:20 AM,73.4,64.4,73,29.95,6.2,SW,12.7,-,N/A,,Scattered Clouds,230,2013-06-16 07:20:00
10:50 AM,75.2,66.2,73,29.95,6.2,SW,11.5,-,N/A,,Scattered Clouds,230,2013-06-16 07:50:00
11:20 AM,73.4,66.2,78,29.95,6.2,WSW,10.4,-,N/A,,Scattered Clouds,240,2013-06-16 08:20:00
11:50 AM,73.4,66.2,78,29.95,6.2,SW,12.7,-,N/A,,Scattered Clouds,230,2013-06-16 08:50:00
12:20 PM,75.2,64.4,69,29.95,6.2,SW,13.8,-,N/A,,Mostly Cloudy,230,2013-06-16 09:20:00
12:50 PM,73.4,66.2,78,29.95,6.2,WSW,10.4,-,N/A,,Mostly Cloudy,240,2013-06-16 09:50:00
1:20 PM,73.4,66.2,78,29.95,6.2,WSW,11.5,-,N/A,,Mostly Cloudy,240,2013-06-16 10:20:00
1:50 PM,75.2,66.2,73,29.95,6.2,WSW,11.5,-,N/A,,Scattered Clouds,240,2013-06-16 10:50:00
2:20 PM,77.0,66.2,69,29.95,6.2,WSW,11.5,-,N/A,,Scattered Clouds,240,2013-06-16 11:20:00
2:50 PM,77.0,66.2,69,29.95,6.2,WSW,12.7,-,N/A,,Scattered Clouds,240,2013-06-16 11:50:00
3:00 PM,77,65,59,29.94,12,WSW,12.7,,,,Partly Cloudy,240,2013-06-16 12:00:00
3:20 PM,78.8,66.2,65,29.95,6.2,WSW,11.5,-,N/A,,Scattered Clouds,240,2013-06-16 12:20:00
3:50 PM,82.4,60.8,48,29.92,6.2,NW,15.0,-,N/A,,Scattered Clouds,320,2013-06-16 12:50:00
4:20 PM,84.2,59.0,42,29.92,6.2,NNW,13.8,-,N/A,,Scattered Clouds,340,2013-06-16 13:20:00
4:50 PM,77.0,64.4,65,29.92,6.2,WSW,12.7,-,N/A,,Scattered Clouds,240,2013-06-16 13:50:00
5:20 PM,78.8,64.4,61,29.92,6.2,WSW,11.5,-,N/A,,Scattered Clouds,250,2013-06-16 14:20:00
5:50 PM,77.0,64.4,65,29.92,6.2,WSW,12.7,-,N/A,,Scattered Clouds,240,2013-06-16 14:50:00
6:20 PM,77.0,64.4,65,29.92,6.2,WSW,11.5,-,N/A,,Scattered Clouds,240,2013-06-16 15:20:00
6:50 PM,77.0,64.4,65,29.92,6.2,WSW,8.1,-,N/A,,Scattered Clouds,240,2013-06-16 15:50:00
7:20 PM,77.0,62.6,61,29.92,6.2,WSW,9.2,-,N/A,,Scattered Clouds,250,2013-06-16 16:20:00
7:50 PM,77.0,62.6,61,29.92,6.2,SW,9.2,-,N/A,,Scattered Clouds,230,2013-06-16 16:50:00
8:20 PM,77.0,62.6,61,29.92,6.2,WSW,9.2,-,N/A,,Scattered Clouds,240,2013-06-16 17:20:00
8:50 PM,77.0,62.6,61,29.92,6.2,West,9.2,-,N/A,,Scattered Clouds,260,2013-06-16 17:50:00
9:00 PM,76,61,51,29.93,6,West,9.2,,,,Partly Cloudy,260,2013-06-16 18:00:00
9:20 PM,75.2,62.6,65,29.92,6.2,West,6.9,-,N/A,,Scattered Clouds,260,2013-06-16 18:20:00
9:50 PM,77.0,62.6,61,29.95,6.2,West,6.9,-,N/A,,Partly Cloudy,280,2013-06-16 18:50:00
10:20 PM,73.4,62.6,69,29.95,6.2,SW,4.6,-,N/A,,Partly Cloudy,220,2013-06-16 19:20:00
10:38 PM,73.4,64.4,73,29.95,6.2,SW,2.3,-,N/A,Thunderstorm,Scattered Clouds,230,2013-06-16 19:38:00
10:50 PM,73.4,66.2,78,29.95,6.2,SSW,1.2,-,N/A,Thunderstorm,Scattered Clouds,210,2013-06-16 19:50:00
11:08 PM,73.4,64.4,73,29.95,6.2,South,3.5,-,N/A,Thunderstorm,Thunderstorm,190,2013-06-16 20:08:00
11:20 PM,73.4,66.2,78,29.98,6.2,Variable,2.3,-,N/A,Thunderstorm,Thunderstorm,0,2013-06-16 20:20:00
11:35 PM,73.4,66.2,78,29.95,6.2,ESE,9.2,-,N/A,,Scattered Clouds,110,2013-06-16 20:35:00
11:50 PM,73.4,66.2,78,29.95,6.2,SSE,5.8,-,N/A,,Scattered Clouds,150,2013-06-16 20:50:00